Location: Plymouth
(43.7570°N, 71.6890°W)
Time: 03:08:13
(UTC-04:00)

Amateur Radio Satellites - All Passes

Search period start: 30 April 2016 02:38
Search period end: 01 May 2016 02:38
Location: Plymouth, 43.7570°N, 71.6890°W

Satellite Date Start Highest point End Downlink Frequencies (MHz)
Time Altitude Azimuth
ITUPSAT 1 30 Apr 03:08:03 03:12:01 26° 265° (W) 03:16:01 437.325
Gurwin Techsat 1B 30 Apr 03:11:23 03:16:44 87° 291° (WNW) 03:22:04 435.225
MOZHAYETS 4 30 Apr 03:15:10 03:19:17 34° 69° (ENE) 03:23:25
ITAMSAT 1 30 Apr 03:15:43 03:20:40 44° 99° (E) 03:25:36 435.822/435.867
BEESAT 3 30 Apr 03:17:55 03:21:25 29° 47° (NE) 03:24:52 437.485
BEESAT 2 30 Apr 03:19:02 03:22:05 20° 42° (NE) 03:25:06 435.950
SWISSCUBE 30 Apr 03:20:11 03:23:26 18° 268° (W) 03:26:43 437.505
CUSAT 1 30 Apr 03:23:54 03:30:29 48° 267° (W) 03:38:01 437.405
KKS-1 30 Apr 03:35:35 03:40:04 89° 269° (W) 03:44:36 437.445
DANDE 30 Apr 03:36:07 03:42:13 69° 262° (W) 03:49:54 436.750
GONETS M04 30 Apr 03:41:00 03:46:06 16° 304° (NW) 03:51:13
Oscar 19 30 Apr 03:44:42 03:48:29 21° 298° (WNW) 03:52:17 437.125/150
STARS 30 Apr 04:01:12 04:05:38 89° 99° (E) 04:10:07 437.465
Cosmos 2499 30 Apr 04:04:53 04:08:29 14° 301° (WNW) 04:12:05 435.465 / 435.565
RS-15 30 Apr 04:05:01 04:15:07 29° 15° (NNE) 04:25:25 29.354- 29.394
YUBILEINY 30 Apr 04:09:52 04:13:10 12° 52° (NE) 04:16:28 435.215
AO-7 30 Apr 04:20:00 04:28:08 54° 102° (ESE) 04:36:15 29.400- 29.500
JAS-2 30 Apr 04:25:01 04:28:55 15° 309° (NW) 04:32:54 435.910
AIST 2 30 Apr 04:25:07 04:26:20 11° 33° (NNE) 04:27:34 435.215
CUBESAT XI-V 30 Apr 04:51:11 04:55:26 38° 70° (ENE) 04:59:43 437.345
MOZHAYETS 4 30 Apr 04:52:45 04:56:30 25° 266° (W) 05:00:17
HORYU 2 30 Apr 04:53:09 04:56:59 28° 96° (E) 05:00:47 437.375
Gurwin Techsat 1B 30 Apr 04:53:23 04:55:54 14° 303° (WNW) 04:58:25 435.225
BEESAT 3 30 Apr 04:55:38 04:59:05 29° 245° (WSW) 05:02:31 437.485
ITAMSAT 1 30 Apr 04:55:42 04:59:54 26° 296° (WNW) 05:04:05 435.822/435.867
BEESAT 2 30 Apr 04:56:20 05:00:11 48° 241° (WSW) 05:04:01 435.950
DANDE 30 Apr 05:22:13 05:24:28 12° 276° (W) 05:26:50 436.750
NOAA 18 30 Apr 05:47:06 05:50:38 17° 91° (E) 05:54:09 137.9125
Cosmos 2504 30 Apr 05:50:22 05:52:42 11° 57° (ENE) 05:55:05 435.465 / 435.565
CUTE-I 30 Apr 06:01:14 06:04:45 18° 91° (E) 06:08:15 437.470
AIST 2 30 Apr 06:01:35 06:05:42 60° 54° (NE) 06:09:47 435.215
YUBILEINY 30 Apr 06:03:37 06:12:12 59° 76° (ENE) 06:20:46 435.215
AO-7 30 Apr 06:13:10 06:20:39 39° 302° (WNW) 06:28:08 29.400- 29.500
RS-15 30 Apr 06:18:51 06:30:56 59° 46° (NE) 06:43:04 29.354- 29.394
STRAND 1 30 Apr 06:29:17 06:34:00 40° 68° (ENE) 06:38:44 437.568
CUBESAT XI-V 30 Apr 06:29:20 06:32:56 23° 267° (W) 06:36:35 437.345
HORYU 2 30 Apr 06:29:40 06:33:30 29° 293° (WNW) 06:37:19 437.375
LilacSat-2 30 Apr 06:32:30 06:35:48 27° 96° (E) 06:39:03 437.200
SO-50 30 Apr 06:41:36 06:43:17 12° 107° (ESE) 06:44:59 436.795
Cubesat XI-IV 30 Apr 06:43:30 06:48:33 42° 98° (E) 06:53:34 437.490
Cosmos 2491 30 Apr 06:47:00 06:55:27 53° 89° (E) 07:03:56 435.465 / 435.565
NOAA 15 30 Apr 06:52:52 06:58:13 76° 103° (ESE) 07:03:32 137.62
GOMX 1 30 Apr 06:55:06 06:59:55 30° 93° (E) 07:04:34 467.674
BRITE-PL 30 Apr 07:04:41 07:10:24 71° 101° (E) 07:16:02 437.365/2234.400
DOVE 4 30 Apr 07:07:42 07:11:24 19° 90° (E) 07:14:58 437.250
NOAA 18 30 Apr 07:26:21 07:31:48 67° 288° (WNW) 07:37:11 137.9125
M-CUBED/EXP-1 PRIME 30 Apr 07:35:47 07:39:38 40° 103° (ESE) 07:43:10 437.505
PRISM 30 Apr 07:39:02 07:42:47 37° 70° (ENE) 07:46:34 437.425
CUTE-I 30 Apr 07:39:58 07:45:14 63° 288° (WNW) 07:50:28 437.470
Cosmos 2504 30 Apr 07:40:17 07:47:43 62° 78° (ENE) 07:55:38 435.465 / 435.565
AIST 2 30 Apr 07:41:29 07:43:42 14° 250° (WSW) 07:45:56 435.215
AUBIESAT-1 30 Apr 07:57:08 08:01:06 58° 106° (ESE) 08:04:45 437.475
YUBILEINY 30 Apr 08:01:10 08:08:29 32° 277° (W) 08:15:50 435.215
CUTE 1.7 + AOD 2 30 Apr 08:01:14 08:04:02 17° 92° (E) 08:06:48 437.475
HO-68 30 Apr 08:05:33 08:11:37 29° 94° (E) 08:17:38 435.675
LilacSat-2 30 Apr 08:06:58 08:09:59 22° 292° (WNW) 08:12:57 437.200
STRAND 1 30 Apr 08:09:01 08:13:16 26° 265° (W) 08:17:33 437.568
CINEMA 3 30 Apr 08:13:30 08:17:25 26° 93° (E) 08:21:10 145.822/145.860
SO-50 30 Apr 08:18:06 08:23:01 87° 124° (SE) 08:27:58 436.795
ISS 30 Apr 08:20:50 08:23:50 34° 139° (SE) 08:26:50 145.825
Cubesat XI-IV 30 Apr 08:23:59 08:28:26 28° 296° (WNW) 08:32:52 437.490
RS-15 30 Apr 08:31:47 08:43:19 50° 250° (WSW) 08:54:51 29.354- 29.394
GOMX 1 30 Apr 08:32:57 08:38:02 39° 291° (WNW) 08:42:58 467.674
SEEDS 30 Apr 08:33:28 08:37:04 28° 95° (E) 08:40:41 437.485
NOAA 15 30 Apr 08:34:06 08:37:21 17° 301° (WNW) 08:40:38 137.62
COMPASS 1 30 Apr 08:42:36 08:46:04 25° 95° (E) 08:49:31 437.405
BRITE-PL 30 Apr 08:44:17 08:48:16 20° 299° (WNW) 08:52:14 437.365/2234.400
DOVE 4 30 Apr 08:44:21 08:49:28 55° 288° (WNW) 08:54:19 437.250
Cosmos 2491 30 Apr 08:44:35 08:52:34 37° 290° (WNW) 09:00:39 435.465 / 435.565
UNISAT 6 30 Apr 08:49:06 08:50:50 12° 60° (ENE) 08:52:33 437.425
CANX-2 30 Apr 09:02:29 09:06:43 89° 297° (WNW) 09:10:57 2200.000
TIGRISAT 30 Apr 09:06:20 09:09:16 17° 63° (ENE) 09:12:10 435.000
NOAA 18 30 Apr 09:10:11 09:11:25 11° 307° (NW) 09:12:40 137.9125
Oscar 11 30 Apr 09:10:25 09:13:19 17° 92° (E) 09:16:13 145.826/435.025
M-CUBED/EXP-1 PRIME 30 Apr 09:10:58 09:13:52 19° 302° (WNW) 09:16:37 437.505
PRISM 30 Apr 09:15:20 09:18:14 19° 267° (W) 09:21:10 437.425
AAUSAT CUBESAT 2 30 Apr 09:16:04 09:20:05 47° 99° (E) 09:24:05 437.432
FUNcube-1 30 Apr 09:17:48 09:20:30 17° 91° (E) 09:23:11 145.935
UWE-3 30 Apr 09:20:06 09:23:48 27° 95° (E) 09:27:24 435.000/436.395/437.385
CUBEBUG 2 30 Apr 09:20:54 09:25:02 40° 97° (E) 09:29:02 437.445
ANTELSAT 30 Apr 09:28:50 09:32:47 28° 67° (ENE) 09:36:42 437.575/2403.000
AUBIESAT-1 30 Apr 09:33:00 09:35:04 14° 305° (NW) 09:37:03 437.475
Cosmos 2504 30 Apr 09:34:34 09:40:34 27° 276° (W) 09:46:52 435.465 / 435.565
CUTE 1.7 + AOD 2 30 Apr 09:36:05 09:40:05 43° 288° (WNW) 09:44:04 437.475
CINEMA 3 30 Apr 09:50:21 09:54:37 34° 292° (WNW) 09:58:42 145.822/145.860
HO-68 30 Apr 09:52:42 09:59:41 58° 293° (WNW) 10:06:39 435.675
GONETS M04 30 Apr 09:53:11 09:57:09 13° 53° (NE) 10:01:06
HUMSAT D 30 Apr 09:53:48 09:54:17 10° 88° (E) 09:54:46 437.325/437.525
ISS 30 Apr 09:57:11 10:00:16 38° 337° (NNW) 10:03:22 145.825
ZACube-1 30 Apr 09:57:22 10:01:29 47° 99° (E) 10:05:29 437.345
SO-50 30 Apr 10:00:41 10:04:10 19° 323° (NW) 10:07:39 436.795
QB50P2 30 Apr 10:01:57 10:04:02 13° 61° (ENE) 10:06:07 145.880/145.840
POLYITAN 1 30 Apr 10:04:00 10:06:08 14° 62° (ENE) 10:08:17 437.675
DUCHIFAT 1 30 Apr 10:06:03 10:07:56 13° 61° (ENE) 10:09:49 145.980
POPSAT HIP 1 30 Apr 10:07:15 10:09:33 14° 62° (ENE) 10:11:51 437.405
SEEDS 30 Apr 10:09:12 10:12:43 26° 292° (WNW) 10:16:13 437.485
QB50P1 30 Apr 10:10:29 10:13:03 16° 63° (ENE) 10:15:36 145.935-145.965
COMPASS 1 30 Apr 10:18:02 10:21:37 28° 291° (WNW) 10:25:11 437.405
UNISAT 6 30 Apr 10:22:12 10:26:53 86° 254° (WSW) 10:31:32 437.425
TIGRISAT 30 Apr 10:40:54 10:45:30 59° 259° (W) 10:50:05 435.000
NANOSAT C BR1 30 Apr 10:45:29 10:49:19 33° 69° (ENE) 10:53:09 145.865
Oscar 11 30 Apr 10:45:34 10:49:40 44° 289° (WNW) 10:53:45 145.826/435.025
AAUSAT CUBESAT 2 30 Apr 10:52:38 10:55:13 16° 296° (WNW) 10:57:48 437.432
FUNcube-1 30 Apr 10:52:59 10:57:01 43° 289° (WNW) 11:00:57 145.935
DELFI C3 30 Apr 10:54:00 10:57:57 67° 285° (WNW) 11:01:54 145.870
UWE-3 30 Apr 10:56:34 11:00:13 27° 293° (WNW) 11:03:47 435.000/436.395/437.385
CUBEBUG 2 30 Apr 10:58:11 11:01:23 20° 296° (WNW) 11:04:30 437.445
BUGSAT 1 30 Apr 10:58:46 11:02:03 22° 66° (ENE) 11:05:21 437.445
ANTELSAT 30 Apr 11:05:13 11:09:24 32° 264° (W) 11:13:33 437.575/2403.000
JAS-2 30 Apr 11:10:08 11:13:13 14° 50° (NE) 11:16:28 435.910
50 SAT 30 Apr 11:24:20 11:26:34 15° 93° (E) 11:28:48 437.505
CUBEBUG 1 30 Apr 11:24:37 11:27:22 16° 91° (E) 11:30:05 437.445
HUMSAT D 30 Apr 11:26:19 11:30:24 68° 285° (WNW) 11:34:26 437.325/437.525
ZACube-1 30 Apr 11:34:41 11:37:24 17° 297° (WNW) 11:40:04 437.345
ISS 30 Apr 11:34:50 11:37:21 20° 357° (N) 11:39:53 145.825
QB50P2 30 Apr 11:35:03 11:39:19 66° 259° (W) 11:43:36 145.880/145.840
AIST 1 30 Apr 11:35:41 11:39:57 45° 77° (ENE) 11:44:10
POLYITAN 1 30 Apr 11:37:10 11:41:26 65° 259° (W) 11:45:43 437.675
DUCHIFAT 1 30 Apr 11:38:49 11:43:04 69° 258° (WSW) 11:47:21 145.980
POPSAT HIP 1 30 Apr 11:40:36 11:44:51 61° 260° (W) 11:49:07 437.405
HO-68 30 Apr 11:43:07 11:45:56 13° 313° (NW) 11:48:45 435.675
VELOX 1 30 Apr 11:43:22 11:47:04 25° 95° (E) 11:50:45 145.980
QB50P1 30 Apr 11:44:11 11:48:23 55° 260° (W) 11:52:37 145.935-145.965
Oscar 19 30 Apr 11:46:34 11:49:05 14° 57° (ENE) 11:51:37 437.125/150
GONETS M04 30 Apr 11:47:24 11:56:07 63° 77° (ENE) 12:04:43
DX 1 30 Apr 11:50:24 11:54:07 26° 95° (E) 11:57:47 434.975-435.025
Cosmos 2499 30 Apr 11:55:11 12:02:13 39° 73° (ENE) 12:09:43 435.465 / 435.565
UKube-1 30 Apr 12:02:15 12:06:00 28° 96° (E) 12:09:45 .
AO-85 30 Apr 12:02:44 12:04:16 11° 105° (ESE) 12:05:48 145.980
PHONESAT 2.4 30 Apr 12:03:26 12:06:14 29° 164° (SSE) 12:09:02 2401.200-2431.200
AISAT 30 Apr 12:14:32 12:18:58 55° 100° (E) 12:23:21 437.250
ESTCUBE 1 30 Apr 12:21:16 12:25:50 86° 108° (ESE) 12:30:22 437.505/2401.250
NANOSAT C BR1 30 Apr 12:21:39 12:25:06 23° 266° (W) 12:28:32 145.865
BUGSAT 1 30 Apr 12:33:20 12:37:13 35° 263° (W) 12:41:09 437.445
SPROUT 30 Apr 12:37:22 12:41:20 35° 97° (E) 12:45:16 437.525
JAS-2 30 Apr 12:51:05 12:56:55 74° 72° (ENE) 13:03:36 435.910
Gurwin Techsat 1B 30 Apr 12:55:25 12:59:35 24° 63° (ENE) 13:03:46 435.225
50 SAT 30 Apr 12:57:09 13:00:31 36° 289° (WNW) 13:03:53 437.505
CUBEBUG 1 30 Apr 12:59:37 13:03:57 52° 288° (WNW) 13:08:15 437.445
ITAMSAT 1 30 Apr 12:59:45 13:01:27 12° 56° (NE) 13:03:09 435.822/435.867
ISS 30 Apr 13:11:38 13:14:32 28° 17° (NNE) 13:17:26 145.825
AIST 1 30 Apr 13:14:21 13:17:08 17° 275° (W) 13:19:56
VELOX 1 30 Apr 13:19:33 13:23:35 33° 291° (WNW) 13:27:34 145.980
TISAT 1 30 Apr 13:22:09 13:25:59 32° 97° (E) 13:29:46 437.305
Oscar 19 30 Apr 13:22:29 13:27:39 89° 255° (WSW) 13:32:53 437.125/150
DX 1 30 Apr 13:26:25 13:30:18 31° 292° (WNW) 13:34:11 434.975-435.025
AO-7 30 Apr 13:31:15 13:36:52 21° 48° (NE) 13:42:29 29.400- 29.500
UKube-1 30 Apr 13:38:16 13:42:00 28° 293° (WNW) 13:45:43 .
AO-85 30 Apr 13:38:28 13:43:55 74° 122° (ESE) 13:49:20 145.980
PHONESAT 2.4 30 Apr 13:39:46 13:42:49 46° 180° (S) 13:45:52 2401.200-2431.200
SWISSCUBE 30 Apr 13:41:51 13:43:26 11° 89° (E) 13:45:01 437.505
GONETS M04 30 Apr 13:45:06 13:52:18 30° 278° (W) 13:59:28
Cosmos 2499 30 Apr 13:48:15 13:55:23 45° 271° (W) 14:03:02 435.465 / 435.565
AISAT 30 Apr 13:52:11 13:55:00 17° 298° (WNW) 13:57:49 437.250
ESTCUBE 1 30 Apr 14:00:30 14:01:57 11° 301° (WNW) 14:03:25 437.505/2401.250
BEESAT 30 Apr 14:13:38 14:17:21 22° 94° (E) 14:21:04 436.000
SPROUT 30 Apr 14:13:45 14:17:06 23° 294° (WNW) 14:20:27 437.525
Gurwin Techsat 1B 30 Apr 14:34:05 14:39:14 49° 261° (W) 14:44:24 435.225
ITAMSAT 1 30 Apr 14:34:53 14:40:03 78° 74° (ENE) 14:45:15 435.822/435.867
JAS-2 30 Apr 14:38:56 14:42:52 18° 274° (W) 14:47:08 435.910
ISS 30 Apr 14:47:57 14:51:12 62° 216° (SW) 14:54:25 145.825
CUSAT 1 30 Apr 14:50:18 14:52:29 16° 83° (E) 14:55:00 437.405
TISAT 1 30 Apr 14:58:06 15:01:30 24° 294° (WNW) 15:04:52 437.305
ITUPSAT 1 30 Apr 15:06:04 15:10:51 72° 103° (ESE) 15:15:36 437.325
Oscar 19 30 Apr 15:06:17 15:07:42 11° 273° (W) 15:09:08 437.125/150
PCSat 30 Apr 15:08:21 15:11:29 16° 104° (ESE) 15:14:37 145.827
SO-50 30 Apr 15:08:53 15:12:24 20° 37° (NE) 15:15:50 436.795
O/OREOS (USA 219) 30 Apr 15:10:46 15:15:08 44° 107° (ESE) 15:19:31 437.305
PHONESAT 2.4 30 Apr 15:16:37 15:19:24 28° 197° (SSW) 15:22:11 2401.200-2431.200
SWISSCUBE 30 Apr 15:17:02 15:21:49 80° 285° (WNW) 15:26:34 437.505
AO-7 30 Apr 15:20:08 15:28:25 79° 69° (ENE) 15:36:43 29.400- 29.500
AO-85 30 Apr 15:20:36 15:24:59 24° 321° (NW) 15:29:17 145.980
KKS-1 30 Apr 15:26:29 15:29:15 16° 91° (E) 15:31:59 437.445
STARS 30 Apr 15:50:45 15:53:15 15° 91° (E) 15:55:45 437.465
BEESAT 30 Apr 15:50:50 15:55:18 41° 291° (WNW) 15:59:46 436.000
HORYU 2 30 Apr 15:52:19 15:56:16 32° 68° (ENE) 16:00:13 437.375
ITAMSAT 1 30 Apr 16:17:34 16:20:07 14° 271° (W) 16:22:39 435.822/435.867
Cubesat XI-IV 30 Apr 16:30:52 16:32:52 12° 55° (NE) 16:34:51 437.490
CUSAT 1 30 Apr 16:31:11 16:34:11 28° 292° (WNW) 16:37:56 437.405
NOAA 15 30 Apr 16:36:35 16:40:19 20° 61° (ENE) 16:44:03 137.62
BRITE-PL 30 Apr 16:42:06 16:43:55 12° 56° (NE) 16:45:46 437.365/2234.400
MOZHAYETS 4 30 Apr 16:45:15 16:49:50 69° 102° (ESE) 16:54:22
ITUPSAT 1 30 Apr 16:45:29 16:48:07 15° 300° (WNW) 16:50:43 437.325
SO-50 30 Apr 16:48:42 16:53:26 75° 239° (WSW) 16:58:01 436.795
PCSat 30 Apr 16:48:46 16:54:11 78° 302° (WNW) 16:59:39 145.827
DANDE 30 Apr 16:49:55 16:52:35 39° 287° (WNW) 16:55:47 436.750
O/OREOS (USA 219) 30 Apr 16:51:09 16:54:45 22° 306° (NW) 16:58:21 437.305
M-CUBED/EXP-1 PRIME 30 Apr 16:52:21 16:53:11 10° 52° (NE) 16:54:01 437.505
Cosmos 2491 30 Apr 16:55:57 17:03:20 28° 65° (ENE) 17:10:36 435.465 / 435.565
SWISSCUBE 30 Apr 16:57:54 16:58:48 10° 303° (WNW) 16:59:41 437.505
KKS-1 30 Apr 17:01:46 17:06:08 53° 288° (WNW) 17:10:28 437.445
AUBIESAT-1 30 Apr 17:11:54 17:14:04 13° 55° (NE) 17:16:14 437.475
NOAA 18 30 Apr 17:14:03 17:19:07 39° 66° (ENE) 17:24:10 137.9125
AO-7 30 Apr 17:15:46 17:22:00 23° 268° (W) 17:28:18 29.400- 29.500
LilacSat-2 30 Apr 17:16:19 17:19:00 18° 66° (ENE) 17:21:42 437.200
YUBILEINY 30 Apr 17:16:41 17:19:24 12° 71° (ENE) 17:22:06 435.215
CUTE-I 30 Apr 17:23:55 17:28:39 34° 66° (ENE) 17:33:23 437.470
STARS 30 Apr 17:25:38 17:29:59 55° 288° (WNW) 17:34:16 437.465
HORYU 2 30 Apr 17:29:02 17:32:49 27° 264° (W) 17:36:37 437.375
GOMX 1 30 Apr 18:04:06 18:08:35 34° 67° (ENE) 18:13:20 467.674
Cubesat XI-IV 30 Apr 18:06:44 18:12:03 78° 74° (ENE) 18:17:24 437.490
DOVE 4 30 Apr 18:13:54 18:17:53 24° 64° (ENE) 18:22:00 437.250
NOAA 15 30 Apr 18:14:25 18:19:37 61° 258° (WSW) 18:24:52 137.62
BRITE-PL 30 Apr 18:16:41 18:21:26 84° 76° (ENE) 18:26:38 437.365/2234.400
M-CUBED/EXP-1 PRIME 30 Apr 18:22:12 18:26:54 69° 69° (ENE) 18:31:34 437.505
CUBESAT XI-V 30 Apr 18:23:05 18:27:48 81° 104° (ESE) 18:32:30 437.345
MOZHAYETS 4 30 Apr 18:24:03 18:26:27 14° 299° (WNW) 18:28:50
PCSat 30 Apr 18:35:04 18:38:31 17° 323° (NW) 18:41:57 145.827
HO-68 30 Apr 18:36:14 18:41:56 27° 57° (ENE) 18:47:38 435.675
STRAND 1 30 Apr 18:40:35 18:42:15 11° 88° (E) 18:43:55 437.568
AUBIESAT-1 30 Apr 18:43:14 18:47:55 88° 255° (WSW) 18:52:33 437.475
BEESAT 3 30 Apr 18:47:17 18:50:46 30° 116° (ESE) 18:54:16 437.485
LilacSat-2 30 Apr 18:49:28 18:53:04 36° 263° (W) 18:56:41 437.200
BEESAT 2 30 Apr 18:50:16 18:53:11 20° 113° (ESE) 18:56:08 435.950
Cosmos 2491 30 Apr 18:52:10 19:00:56 69° 267° (W) 19:09:36 435.465 / 435.565
NOAA 18 30 Apr 18:54:57 18:59:49 31° 264° (W) 19:04:41 137.9125
CUTE 1.7 + AOD 2 30 Apr 18:55:47 18:58:17 15° 63° (ENE) 19:00:46 437.475
CUTE-I 30 Apr 19:03:51 19:08:39 34° 263° (W) 19:13:29 437.470
YUBILEINY 30 Apr 19:05:44 19:14:19 65° 92° (E) 19:22:54 435.215
CINEMA 3 30 Apr 19:15:39 19:19:58 30° 67° (ENE) 19:24:19 145.822/145.860
SEEDS 30 Apr 19:26:43 19:30:02 23° 67° (ENE) 19:33:22 437.485
COMPASS 1 30 Apr 19:35:01 19:38:07 21° 66° (ENE) 19:41:14 437.405
GOMX 1 30 Apr 19:42:16 19:46:39 31° 266° (W) 19:51:19 467.674
Cubesat XI-IV 30 Apr 19:49:59 19:52:44 14° 271° (W) 19:55:29 437.490
DOVE 4 30 Apr 19:50:19 19:55:12 49° 262° (W) 20:00:19 437.250
CANX-2 30 Apr 19:56:09 20:00:22 76° 76° (ENE) 20:04:36 2200.000
M-CUBED/EXP-1 PRIME 30 Apr 19:59:13 20:01:49 15° 265° (W) 20:04:26 437.505
BRITE-PL 30 Apr 19:59:14 20:00:45 11° 275° (W) 20:02:17 437.365/2234.400
CUBESAT XI-V 30 Apr 20:02:29 20:04:32 13° 300° (WNW) 20:06:35 437.345
Oscar 11 30 Apr 20:06:48 20:09:37 17° 64° (ENE) 20:12:25 145.826/435.025
AAUSAT CUBESAT 2 30 Apr 20:07:33 20:11:19 37° 71° (ENE) 20:15:07 437.432
FUNcube-1 30 Apr 20:14:32 20:17:34 18° 64° (ENE) 20:20:35 145.935
STRAND 1 30 Apr 20:16:58 20:22:06 87° 290° (WNW) 20:27:13 437.568
UWE-3 30 Apr 20:17:55 20:21:56 29° 68° (ENE) 20:25:53 435.000/436.395/437.385
CUBEBUG 2 30 Apr 20:19:33 20:24:02 42° 71° (ENE) 20:28:27 437.445
Cosmos 2504 30 Apr 20:20:48 20:27:43 48° 90° (E) 20:34:31 435.465 / 435.565
HO-68 30 Apr 20:21:57 20:29:05 69° 256° (WSW) 20:36:14 435.675
AUBIESAT-1 30 Apr 20:22:26 20:22:56 10° 267° (W) 20:23:26 437.475
BEESAT 3 30 Apr 20:25:02 20:28:28 28° 314° (NW) 20:31:56 437.485
BEESAT 2 30 Apr 20:27:00 20:30:47 41° 310° (NW) 20:34:36 435.950
CUTE 1.7 + AOD 2 30 Apr 20:29:35 20:33:43 52° 260° (W) 20:37:51 437.475
AO-85 30 Apr 20:30:10 20:33:27 17° 34° (NNE) 20:36:33 145.980
RS-15 30 Apr 20:46:35 20:55:23 28° 101° (ESE) 21:04:30 29.354- 29.394
HUMSAT D 30 Apr 20:47:09 20:47:35 10° 60° (ENE) 20:48:02 437.325/437.525
Cosmos 2491 30 Apr 20:52:22 20:55:59 13° 288° (WNW) 20:59:37 435.465 / 435.565
CINEMA 3 30 Apr 20:52:25 20:56:59 35° 264° (W) 21:01:35 145.822/145.860
ZACube-1 30 Apr 20:53:53 20:58:12 45° 72° (ENE) 21:02:30 437.345
PRISM 30 Apr 20:54:06 20:58:09 50° 100° (E) 21:02:13 437.425
SEEDS 30 Apr 21:01:52 21:05:36 31° 264° (W) 21:09:21 437.485
YUBILEINY 30 Apr 21:04:21 21:11:45 30° 294° (WNW) 21:19:11 435.215
COMPASS 1 30 Apr 21:09:42 21:13:29 35° 263° (W) 21:17:18 437.405
AIST 2 30 Apr 21:38:08 21:42:16 85° 123° (ESE) 21:46:26 435.215
DELFI C3 30 Apr 21:40:55 21:44:52 82° 76° (ENE) 21:48:50 145.870
Oscar 11 30 Apr 21:41:11 21:45:22 49° 261° (W) 21:49:34 145.826/435.025
AAUSAT CUBESAT 2 30 Apr 21:43:59 21:46:57 19° 267° (W) 21:49:56 437.432
FUNcube-1 30 Apr 21:49:02 21:53:27 51° 261° (W) 21:57:49 145.935
ESTCUBE 1 30 Apr 21:49:03 21:50:11 11° 59° (ENE) 21:51:19 437.505/2401.250
UWE-3 30 Apr 21:54:11 21:58:18 31° 264° (W) 22:02:23 435.000/436.395/437.385
CUBEBUG 2 30 Apr 21:57:06 22:00:47 22° 267° (W) 22:04:27 437.445
STRAND 1 30 Apr 21:58:19 22:00:30 13° 303° (WNW) 22:02:42 437.568
AO-85 30 Apr 22:09:52 22:14:46 87° 59° (ENE) 22:19:10 145.980
UNISAT 6 30 Apr 22:13:55 22:16:48 17° 91° (E) 22:19:39 437.425
Cosmos 2504 30 Apr 22:14:56 22:21:18 32° 290° (WNW) 22:27:37 435.465 / 435.565
HO-68 30 Apr 22:16:03 22:18:04 11° 275° (W) 22:20:05 435.675
HUMSAT D 30 Apr 22:18:19 22:22:34 85° 257° (WSW) 22:26:48 437.325/437.525
CUBEBUG 1 30 Apr 22:22:10 22:24:55 17° 63° (ENE) 22:27:41 437.445
PRISM 30 Apr 22:30:32 22:33:05 16° 297° (WNW) 22:35:39 437.425
ZACube-1 30 Apr 22:31:28 22:34:42 19° 268° (W) 22:37:54 437.345
TIGRISAT 30 Apr 22:31:46 22:35:22 25° 94° (E) 22:38:53 435.000
VELOX 1 30 Apr 22:41:57 22:45:39 27° 67° (ENE) 22:49:23 145.980
DX 1 30 Apr 22:47:11 22:50:51 27° 67° (ENE) 22:54:33 434.975-435.025
RS-15 30 Apr 22:54:58 23:06:19 85° 305° (NW) 23:18:24 29.354- 29.394
ANTELSAT 30 Apr 22:55:16 22:59:29 46° 99° (E) 23:03:36 437.575/2403.000
UKube-1 30 Apr 22:58:02 23:01:45 29° 67° (ENE) 23:05:29 .
GONETS M04 30 Apr 22:59:30 23:03:08 13° 72° (ENE) 23:06:45
AISAT 30 Apr 23:12:55 23:17:16 57° 72° (ENE) 23:21:40 437.250
AIST 2 30 Apr 23:18:54 23:21:20 15° 323° (NW) 23:23:48 435.215
QB50P2 30 Apr 23:19:39 23:22:37 18° 92° (E) 23:25:32 145.880/145.840
POLYITAN 1 30 Apr 23:21:46 23:24:45 18° 93° (E) 23:27:42 437.675
ESTCUBE 1 30 Apr 23:21:48 23:26:17 89° 265° (W) 23:30:48 437.505/2401.250
DUCHIFAT 1 30 Apr 23:22:48 23:25:33 17° 92° (E) 23:28:17 145.980
POPSAT HIP 1 30 Apr 23:24:56 23:28:02 19° 93° (E) 23:31:05 437.405
QB50P1 30 Apr 23:28:15 23:31:32 21° 94° (E) 23:34:47 145.935-145.965
SPROUT 30 Apr 23:32:10 23:36:00 32° 69° (ENE) 23:39:52 437.525
50 SAT 30 Apr 23:36:33 23:40:12 66° 259° (WSW) 23:43:51 437.505
O/OREOS (USA 219) 30 Apr 23:41:25 23:43:53 14° 49° (NE) 23:46:20 437.305
UNISAT 6 30 Apr 23:49:37 23:53:47 45° 289° (WNW) 23:57:52 437.425
PCSat 30 Apr 23:52:44 23:56:53 22° 42° (NE) 00:01:01 145.827
AO-85 30 Apr 23:53:09 23:54:19 11° 255° (WSW) 23:55:28 145.980
CUBEBUG 1 30 Apr 23:56:31 00:00:47 53° 260° (W) 00:05:07 437.445
JAS-2 01 May 00:01:12 00:04:09 12° 83° (E) 00:07:07 435.910
NANOSAT C BR1 01 May 00:03:49 00:07:57 49° 100° (E) 00:12:01 145.865
AIST 1 01 May 00:06:50 00:10:20 25° 88° (E) 00:13:52
TIGRISAT 01 May 00:08:14 00:12:05 31° 292° (WNW) 00:15:51 435.000
BUGSAT 1 01 May 00:13:52 00:17:34 29° 96° (E) 00:21:12 437.445
TISAT 1 01 May 00:15:03 00:18:44 29° 68° (ENE) 00:22:26 437.305
VELOX 1 01 May 00:18:05 00:22:01 31° 264° (W) 00:26:01 145.980
DX 1 01 May 00:23:08 00:26:57 30° 263° (W) 00:30:50 434.975-435.025
ANTELSAT 01 May 00:32:55 00:35:50 18° 297° (WNW) 00:38:44 437.575/2403.000
UKube-1 01 May 00:34:03 00:37:45 27° 264° (W) 00:41:29 .
Cosmos 2499 01 May 00:35:14 00:40:55 27° 84° (E) 00:46:36 435.465 / 435.565
ITUPSAT 1 01 May 00:39:33 00:41:33 13° 58° (ENE) 00:43:33 437.325
SWISSCUBE 01 May 00:49:00 00:52:03 17° 61° (ENE) 00:55:07 437.505
GONETS M04 01 May 00:49:25 00:58:10 69° 93° (E) 01:06:57
AISAT 01 May 00:51:40 00:54:08 14° 270° (W) 00:56:35 437.250
QB50P2 01 May 00:54:36 00:58:37 41° 289° (WNW) 01:02:35 145.880/145.840
POLYITAN 1 01 May 00:56:44 01:00:44 40° 289° (WNW) 01:04:41 437.675
DUCHIFAT 1 01 May 00:57:27 01:01:29 44° 289° (WNW) 01:05:29 145.980
POPSAT HIP 1 01 May 01:00:00 01:03:58 39° 290° (WNW) 01:07:53 437.405
QB50P1 01 May 01:03:32 01:07:25 35° 290° (WNW) 01:11:15 145.935-145.965
SPROUT 01 May 01:08:29 01:11:59 24° 266° (W) 01:15:32 437.525
RS-15 01 May 01:10:24 01:20:45 35° 333° (NNW) 01:31:37 29.354- 29.394
CUSAT 1 01 May 01:18:30 01:24:31 31° 70° (ENE) 01:31:17 437.405
O/OREOS (USA 219) 01 May 01:19:20 01:23:54 77° 248° (WSW) 01:28:21 437.305
BEESAT 01 May 01:21:10 01:25:18 30° 67° (ENE) 01:29:27 436.000
Oscar 19 01 May 01:33:07 01:37:39 29° 95° (E) 01:42:08 437.125/150
PCSat 01 May 01:35:26 01:40:52 74° 242° (WSW) 01:46:16 145.827
NANOSAT C BR1 01 May 01:40:37 01:43:18 17° 297° (WNW) 01:45:57 145.865
DANDE 01 May 01:40:53 01:45:39 22° 69° (ENE) 01:51:12 436.750
JAS-2 01 May 01:42:43 01:50:27 65° 101° (E) 01:58:13 435.910
AIST 1 01 May 01:44:03 01:47:48 29° 286° (WNW) 01:51:37
BUGSAT 1 01 May 01:49:21 01:52:51 26° 293° (WNW) 01:56:17 437.445
TISAT 1 01 May 01:50:47 01:54:22 26° 265° (W) 01:57:58 437.305
ITUPSAT 1 01 May 02:13:56 02:18:42 86° 256° (WSW) 02:23:30 437.325
SWISSCUBE 01 May 02:24:42 02:29:24 60° 259° (W) 02:34:06 437.505
KKS-1 01 May 02:25:51 02:28:56 19° 63° (ENE) 02:32:02 437.445
